Location: Ajisawe
(8.4333°N, 4.3833°E)
Time: 00:47:29
(UTC+00:00)

Courier 1B Rocket - Pass Details

Date: 24 April 2021
Orbit: 920 x 1202 km, 28.3° (Epoch: 13 May)

Event Time Altitude Azimuth Distance (km) Brightness Sun altitude
Rises 12:51:29 0° 219° (SW) 3,642 8.1 72.0°
Reaches altitude 10° 12:54:31 10° 208° (SSW) 2,661 7.5 71.3°
Maximum altitude 12:59:56 29° 150° (SSE) 1,621 6.4 70.0°
Drops below altitude 10° 13:05:14 10° 91° (E) 2,601 7.2 68.7°
Sets 13:08:09 0° 80° (E) 3,547 7.7 68.0°
